Probability
0 0 0 0 0 0 0 0 0 0 0 0 0 0 0 0 0 0 0 0 0 0 0 0 0 0 0 0 0 0 0 0 0 1 2 3 3 1 1 2 3 4 4
0 0 0 0 0 0 0 0 0 0 0 0 0 0 0 0 0 0 0 0 0 0 0 0 0 0 0 0 0 0 0 0 1 2 2 3 4 3 1 1 2 3 4
0 0 0 0 0 0 0 0 0 0 0 0 0 0 0 0 0 0 0 0 0 0 0 0 0 0 0 0 0 0 0 0 1 2 2 4 5 5 3 2 2 2 2
0 0 0 0 0 0 0 0 0 0 0 0 0 0 0 0 0 0 0 0 0 0 0 0 0 0 0 1 1 1 0 0 1 2 3 5 6 5 4 3 3 2 2
0 0 0 0 0 0 0 0 0 0 0 0 0 0 0 0 0 0 0 0 0 0 0 0 0 0 0 2 2 1 0 0 1 2 4 5 5 4 3 3 3 2 2
0 0 0 0 0 0 0 0 0 0 0 0 0 0 0 0 0 0 0 0 0 0 0 0 0 0 0 1 2 1 0 0 1 2 4 4 2 2 2 2 2 1 1
0 0 0 0 0 0 0 0 0 0 0 0 0 0 0 0 0 0 0 0 0 0 0 0 0 0 0 1 1 1 0 0 0 1 2 3 2 1 0 0 0 0 0
0 0 0 0 0 0 0 0 0 0 0 0 0 0 0 0 0 0 0 0 0 0 0 0 0 0 1 1 1 0 0 0 0 0 1 3 2 1 0 0 0 0 0
0 0 0 0 0 0 0 0 0 0 0 0 0 0 0 0 0 0 0 0 0 0 0 0 0 0 1 1 1 0 0 0 0 0 1 2 2 1 0 0 0 0 0
0 0 0 0 0 0 0 0 0 0 0 0 0 0 0 0 0 0 0 0 0 0 0 0 0 0 0 0 0 0 0 0 0 0 0 1 1 0 0 0 0 0 0
0 0 0 0 0 0 0 0 0 0 0 0 0 0 0 0 0 0 0 0 0 0 0 0 0 0 0 0 0 0 0 0 0 0 0 0 0 0 0 0 0 0 0
0 0 0 0 0 0 0 0 0 0 0 0 0 0 0 0 0 0 0 0 0 0 0 0 0 0 0 0 0 0 0 0 0 0 0 0 0 0 0 0 0 0 0
0 0 0 0 0 0 0 0 0 0 0 0 0 0 0 0 0 0 0 0 0 0 0 0 0 0 0 0 0 0 0 0 0 0 0 0 0 0 0 0 0 0 0
0 0 0 0 0 0 0 0 0 0 0 0 0 0 0 0 0 0 0 0 0 0 0 0 0 0 0 0 0 0 0 0 0 0 0 0 0 0 0 0 0 0 0
0 0 0 0 0 0 0 0 0 0 0 0 0 0 0 0 0 0 0 0 0 0 0 0 0 0 0 0 0 0 0 0 0 0 0 0 0 0 0 0 0 0 0
0 0 0 0 0 0 0 0 0 0 0 0 0 0 0 0 0 0 0 0 0 0 0 0 0 0 0 0 0 0 0 0 0 0 0 0 0 0 0 0 0 0 0
0 0 0 0 0 0 0 0 0 0 0 0 0 0 0 0 0 0 0 0 0 0 0 0 0 0 0 0 0 0 0 0 0 0 0 0 0 0 0 0 0 0 0
0 0 0 0 0 0 0 0 0 0 0 0 0 0 0 0 0 0 0 0 0 0 0 0 0 0 0 0 0 0 0 0 0 0 0 0 0 0 0 0 0 0 0
0 0 0 1 1 1 0 0 0 0 0 0 0 0 0 0 0 0 0 0 0 0 0 0 0 0 0 0 0 0 0 0 0 0 0 0 0 0 0 0 0 0 0
1 1 1 2 2 2 1 0 0 0 0 0 0 0 0 0 0 0 0 0 0 0 0 0 0 0 0 0 0 0 0 0 0 0 0 0 0 0 0 0 0 0 0
2 2 2 3 3 2 1 0 0 0 0 0 0 0 0 0 0 0 0 0 0 0 0 0 0 0 0 0 0 0 0 0 0 0 0 0 0 0 0 0 0 0 0
2 1 1 2 1 1 0 0 0 0 0 0 0 0 0 0 0 0 0 0 0 0 0 0 0 0 0 0 0 0 0 0 0 0 0 0 0 0 0 0 0 0 0
2 1 0 0 0 0 0 0 0 0 0 0 0 0 0 0 0 0 0 0 0 0 0 0 0 0 0 0 0 0 0 0 0 0 0 0 0 0 0 0 0 0 0
2 1 0 0 0 0 0 0 0 0 0 0 0 0 0 0 0 0 0 0 0 0 0 0 0 0 0 0 0 0 0 0 0 0 0 0 0 0 0 0 0 0 0
1 0 0 0 0 0 0 0 0 0 0 0 0 0 0 0 0 0 0 0 0 0 0 0 0 0 0 0 0 0 0 0 0 0 0 0 0 0 0 0 0 0 0
1 1 0 0 0 0 0 0 0 0 0 1 1 1 0 0 0 0 0 0 0 0 0 0 0 0 0 0 0 0 0 0 0 0 0 0 0 0 0 0 0 0 0
Wind_Speed
3 3 3 2 3 3 3 3 4 5 5 6 5 6 6 7 6 6 6 12 12 11 11 10 10 10 9 8 8 8 8 8 8 8 8 8 7 7 6 6 7 8 8
2 2 3 3 3 3 3 4 5 4 4 4 5 6 6 6 6 6 6 7 11 11 12 11 11 9 9 9 9 8 8 8 8 8 8 7 7 7 6 6 7 8 8
2 2 2 3 3 3 4 4 5 4 4 4 5 6 5 6 5 6 6 5 6 9 11 11 11 10 9 9 9 8 8 8 8 8 8 8 7 7 7 7 8 8 9
2 2 2 2 3 3 3 3 3 4 4 4 4 4 4 4 5 5 5 5 4 5 8 11 11 11 10 10 9 9 9 9 8 8 8 8 8 8 8 9 9 9 9
2 2 2 2 3 3 3 3 3 3 4 4 3 3 3 3 4 4 5 5 5 5 5 7 10 11 12 11 10 9 9 9 9 8 8 9 9 9 9 9 10 10 10
2 3 2 3 3 3 3 3 4 3 3 2 3 3 3 3 3 4 4 4 5 5 5 5 4 7 11 12 12 11 10 10 10 9 9 9 9 9 9 9 10 10 10
2 3 2 3 3 3 3 4 4 4 3 2 2 3 3 3 4 3 3 3 4 5 4 5 4 4 5 9 11 11 11 10 10 10 10 9 10 9 9 9 9 10 10
3 2 3 3 3 3 4 4 3 2 2 2 1 1 2 3 3 3 3 3 4 3 4 5 4 4 4 4 8 10 10 10 10 10 10 9 10 10 9 9 9 9 10
3 3 3 3 3 3 3 4 4 4 2 2 1 2 1 1 2 2 3 3 3 3 3 4 4 5 5 4 5 8 10 9 9 9 10 9 10 10 9 9 8 9 9
3 3 3 3 3 3 4 4 4 3 3 2 1 1 2 1 1 2 2 3 3 3 3 3 3 4 4 4 6 9 9 9 9 9 9 10 9 9 9 9 9 9 9
3 3 3 3 3 3 3 3 3 3 2 2 1 1 1 1 2 1 1 2 2 2 3 3 2 3 4 4 4 8 9 8 9 9 9 10 9 9 9 9 9 9 9
3 4 3 3 3 3 3 3 3 3 2 2 2 2 2 2 1 1 2 2 1 2 3 3 2 3 3 4 6 8 8 8 8 9 9 9 9 9 9 9 9 9 9
3 4 3 3 3 3 3 3 3 3 3 2 2 1 1 1 1 1 1 1 1 1 2 2 2 2 2 3 4 6 7 7 8 8 8 9 9 9 9 9 9 9 9
3 4 4 3 3 3 3 3 3 3 2 2 2 1 1 1 0 1 1 2 2 2 1 2 2 2 2 2 4 1 6 7 7 7 8 8 8 8 9 8 8 8 8
3 4 4 4 4 3 3 4 2 3 2 2 1 1 1 1 1 0 1 2 2 2 1 1 1 2 1 3 2 2 4 8 7 6 6 7 7 8 8 8 8 8 8
4 4 4 4 4 4 4 3 2 2 2 2 1 1 1 1 1 1 1 1 2 1 1 2 1 1 2 2 3 3 4 6 6 6 6 6 6 6 7 7 7 7 7
5 5 4 4 4 4 4 3 3 3 3 3 3 2 2 2 1 1 1 1 1 0 2 1 1 2 2 2 2 2 2 2 5 6 5 5 5 6 6 6 6 6 6
5 5 4 4 4 4 4 4 4 3 3 2 2 2 2 2 2 1 1 1 1 1 2 2 2 1 2 1 1 1 1 2 3 6 5 4 4 4 5 5 5 5 6
5 5 5 4 4 4 4 4 4 4 3 2 2 2 2 2 2 2 2 1 1 2 2 2 2 1 1 1 1 1 2 1 1 4 4 4 4 4 4 4 4 4 5
5 5 5 4 4 4 4 4 4 4 3 3 2 2 1 2 2 2 2 2 2 3 2 2 2 2 1 1 1 1 1 1 0 1 1 2 3 3 2 2 3 3 3
4 4 4 4 4 3 3 3 4 4 3 3 3 2 1 2 3 1 0 1 2 2 2 2 2 2 2 1 1 1 1 1 1 0 1 0 1 1 2 2 2 2 3
4 4 4 4 4 2 3 2 2 4 3 3 3 3 3 3 4 4 4 3 2 1 2 2 1 1 1 1 1 1 1 1 1 1 1 1 0 0 0 1 3 3 2
4 4 4 4 4 4 5 4 2 3 3 2 2 3 2 2 3 4 5 5 3 3 2 1 1 1 1 1 1 2 1 1 1 1 1 1 0 1 0 2 4 2 3
4 4 4 4 3 4 6 5 4 4 3 3 2 3 3 3 2 2 4 3 3 3 1 1 0 1 1 1 1 1 1 1 1 1 1 2 1 1 1 1 4 1 2
4 4 4 4 4 5 6 6 5 4 3 3 3 2 3 3 3 1 3 4 4 4 4 5 6 5 5 5 3 0 0 1 1 1 0 3 2 2 2 2 2 2 1
4 4 4 4 4 4 6 6 6 3 4 4 3 3 2 2 4 2 3 3 3 3 3 4 3 3 3 3 0 1 1 2 2 1 0 2 2 2 2 1 1 1 2
Wind_Direction
110 111 106 102 98 97 103 89 84 80 77 73 71 67 65 62 59 60 68 58 48 46 47 53 55 54 55 56 59 61 62 63 61 59 55 50 50 48 47 45 42 41 38
116 118 103 98 96 89 85 95 93 91 82 74 72 69 63 63 61 60 62 74 64 51 47 49 50 52 55 60 63 65 65 62 59 60 56 51 49 47 48 47 46 43 42
134 129 120 116 112 111 105 98 96 90 90 86 78 73 68 59 61 61 55 48 69 70 54 46 46 49 52 57 61 65 65 64 60 58 56 50 50 51 53 53 52 49 46
142 131 126 124 122 117 111 109 111 103 94 84 77 71 74 67 59 56 57 58 50 55 69 54 47 46 47 51 56 63 66 64 59 56 54 50 54 55 56 55 54 52 49
164 144 126 137 131 129 121 123 110 105 97 91 87 79 69 63 56 53 57 55 58 54 60 76 65 51 45 46 50 57 61 61 58 56 55 54 57 57 56 55 54 54 52
169 140 156 154 141 137 131 130 120 113 101 103 91 80 68 69 62 51 49 55 52 51 49 48 63 70 55 44 43 49 53 54 55 54 52 55 56 58 58 57 53 52 53
164 157 174 156 157 156 157 150 138 137 132 125 122 112 98 72 63 62 48 45 57 50 50 52 46 45 68 63 47 45 47 48 50 51 52 56 59 58 58 57 54 53 53
171 170 174 163 164 158 160 156 159 162 154 189 211 175 148 129 86 60 61 51 48 57 48 45 52 57 47 54 62 50 44 44 48 48 49 55 57 57 58 58 59 57 53
173 181 176 177 169 168 168 175 177 187 187 200 267 293 285 88 107 92 64 59 49 43 51 46 48 50 53 51 53 57 47 43 45 46 47 53 57 56 58 58 60 59 55
173 181 179 184 178 178 177 187 185 194 207 206 194 295 321 22 247 147 122 77 58 49 46 48 46 50 51 61 65 52 49 46 47 46 46 50 55 55 55 56 57 57 55
171 182 182 179 182 185 192 189 186 206 213 230 214 196 204 211 249 218 161 139 99 67 51 47 49 47 50 56 59 60 55 48 49 47 46 46 51 53 54 56 56 55 51
175 181 182 187 189 188 185 190 193 200 220 218 233 219 212 221 211 215 195 165 122 82 68 54 43 50 57 70 69 66 61 56 54 53 50 48 49 49 48 51 54 53 50
179 180 179 188 189 183 180 185 195 203 205 206 226 240 246 260 236 235 204 162 141 132 96 75 56 60 64 78 85 80 76 64 58 56 52 51 51 48 45 47 49 48 47
182 179 180 178 180 178 178 181 196 195 201 197 215 218 229 244 235 213 200 182 184 163 148 98 77 56 53 71 71 88 84 75 64 59 55 54 52 48 44 45 45 42 43
177 178 179 180 179 180 185 181 196 186 187 204 206 191 198 147 171 206 212 233 249 216 153 117 86 69 70 71 66 86 80 79 72 65 60 58 56 51 49 48 46 43 41
176 179 183 177 177 177 184 185 186 184 179 162 189 187 155 158 139 195 226 249 272 268 118 103 128 112 85 106 89 79 85 101 85 75 68 65 62 59 55 51 48 45 44
190 192 187 183 180 179 180 178 184 177 180 170 175 175 162 160 162 177 211 226 242 195 138 131 132 118 126 118 122 119 114 111 98 87 75 69 68 63 58 55 51 48 44
194 197 192 189 186 187 189 183 178 180 182 181 177 172 155 145 153 170 184 171 136 148 160 152 147 146 140 116 130 147 128 103 97 97 89 78 73 68 63 57 51 48 44
192 194 191 189 187 188 190 189 180 174 173 176 181 172 156 155 160 153 163 158 140 129 138 157 145 142 158 144 148 143 132 118 116 123 126 109 85 71 66 58 51 46 42
192 192 187 183 185 187 191 191 183 173 169 171 178 177 171 171 176 162 165 162 154 145 148 156 153 152 146 153 194 194 167 153 137 88 104 122 129 138 113 73 56 47 38
190 186 175 177 176 179 189 190 181 176 172 167 164 158 119 75 43 58 151 170 163 163 159 161 166 164 157 173 212 226 236 210 145 51 292 189 168 180 157 137 98 37 19
174 170 176 175 170 160 122 140 197 176 171 171 170 163 149 144 120 106 85 55 19 196 173 168 179 191 181 194 221 229 235 248 213 105 284 290 311 308 20 56 65 44 9
168 170 172 174 177 150 141 150 188 193 174 174 179 165 144 142 164 152 135 133 100 51 351 271 215 262 269 259 248 241 245 264 306 62 283 264 220 293 323 84 89 39 6
168 179 175 175 168 151 147 155 174 189 173 175 179 173 167 158 145 163 148 139 124 109 90 227 157 61 10 342 281 282 275 253 222 117 291 282 280 293 297 141 117 52 350
175 182 178 174 172 162 156 166 187 180 174 171 168 169 171 155 116 188 167 152 141 125 95 73 53 66 60 36 355 287 253 247 244 161 242 287 293 292 263 224 147 165 239
182 178 176 183 180 176 159 175 199 184 178 170 164 156 120 138 137 181 185 172 168 150 146 142 142 150 147 122 200 264 275 275 282 256 94 290 297 294 270 231 271 242 234